Content
SEND FEEDBACK

Daily
Averages
Monthly
Summary
Canada

VANCOUVER, BRITISH COLUMBIA


Home > North America > Canada > British Columbia
Elevation: 7 feet     Latitude: 49 11N     Longitude: 123 10W

WEATHER
 
SELECT A DAY
Number of Records: 248,859;   Date Range: 5/15/97 - 4/18/14
 
SHARE

PRINT THIS DATA

[ ← Previous Day ]
WEATHER ALMANAC - JUNE 19, 2013
[ Next Day → ]
[ °C ]   °F
Weather ElementAverageHighLow
Temperature60.3 °F68 °F (3:15 pm)51.8 °F (5:35 am)
Dewpoint49.8 °F53.6 °F (9:15 am)44.6 °F (9:35 pm)
Humidity69.9 %94 % (5:35 am)49 % (3:15 pm)
Barometer29.91 in29.95 in (9:35 pm)29.88 in (3:15 am)
Wind Speed5 mph10.4 mph (1:35 pm)
Weather ElementAverage
Visibility9.8 mi
Wind DirectionSSE (160.6 °)

Weather ElementTotal
Precipitation---
Heating Degree Days5.1 (Base 65)
Growing Degree Days9.9 (Base 50)
Averaged from 71 records on June 19, 2013
WEATHER CONDITIONS BREAKOUT
WIND DIRECTION BREAKOUT
WEATHER BY HOUR - JUNE 19, 2013
[ °C ]   °F
Local TimeTemperatureDewpointHumidityBarometerVisibilityWind DirectionWind SpeedGust SpeedPrecipitationEventsConditions
12:35 AM55.4 °F50.0 °F82 %29.91 in10.0 miSouth (170°)3.5 mphClear
12:55 AM55.4 °F50.0 °F82 %29.91 in10.0 miSouth (190°)5.8 mphClear
1:15 AM55.4 °F50.0 °F82 %29.91 in10.0 miSSW (200°)8.1 mphClear
1:35 AM55.4 °F50.0 °F82 %29.90 in10.0 miCalmClear
1:55 AM55.4 °F50.0 °F82 %29.90 in10.0 miCalmClear
2:15 AM55.4 °F50.0 °F82 %29.90 in10.0 miSouth (180°)4.6 mphClear
2:35 AM55.4 °F50.0 °F82 %29.90 in10.0 miCalmClear
2:55 AM55.4 °F50.0 °F82 %29.89 in10.0 miSouth (190°)5.8 mphClear
3:15 AM53.6 °F50.0 °F88 %29.88 in10.0 miSouth (180°)4.6 mphClear
3:35 AM53.6 °F50.0 °F88 %29.88 in10.0 miSouth (190°)4.6 mphClear
3:55 AM53.6 °F50.0 °F88 %29.88 in10.0 miSouth (190°)5.8 mphClear
4:15 AM53.6 °F50.0 °F88 %29.89 in10.0 miSouth (190°)5.8 mphClear
4:35 AM53.6 °F50.0 °F88 %29.90 in10.0 miSouth (190°)6.9 mphClear
4:55 AM53.6 °F50.0 °F88 %29.89 in10.0 miSouth (190°)5.8 mphClear
5:15 AM53.6 °F50.0 °F88 %29.89 in10.0 miNorthClear
5:35 AM51.8 °F50.0 °F94 %29.89 in10.0 miCalmClear
5:55 AM53.6 °F50.0 °F88 %29.89 in10.0 miSouth (190°)3.5 mphPartly Cloudy
6:15 AM53.6 °F50.0 °F88 %29.90 in10.0 miSouth (190°)3.5 mphMostly Cloudy
6:35 AM53.6 °F50.0 °F88 %29.90 in9.0 miSSW (200°)5.8 mphMostly Cloudy
6:55 AM53.6 °F50.0 °F88 %29.91 in10.0 miCalmMostly Cloudy
7:15 AM55.4 °F50.0 °F82 %29.91 in9.0 miCalmMostly Cloudy
7:35 AM55.4 °F50.0 °F82 %29.90 in10.0 miSouth (180°)4.6 mphScattered Clouds
7:55 AM55.4 °F50.0 °F82 %29.90 in10.0 miSouth (190°)5.8 mphPartly Cloudy
8:15 AM55.4 °F50.0 °F82 %29.90 in9.0 miNorthScattered Clouds
8:35 AM57.2 °F51.8 °F82 %29.91 in10.0 miNorthMostly Cloudy
8:55 AM57.2 °F51.8 °F82 %29.91 in10.0 miCalmMostly Cloudy
9:15 AM59.0 °F53.6 °F82 %29.91 in9.0 miSouth (180°)4.6 mphMostly Cloudy
9:35 AM57.2 °F51.8 °F82 %29.91 in9.0 miSouth (190°)6.9 mphMostly Cloudy
9:55 AM57.2 °F51.8 °F82 %29.91 in9.0 miCalmMostly Cloudy
10:15 AM57.2 °F51.8 °F82 %29.90 in10.0 miSouth (190°)5.8 mphMostly Cloudy
10:35 AM57.2 °F51.8 °F82 %29.90 in9.0 miSouth (190°)4.6 mphScattered Clouds
10:55 AM59.0 °F51.8 °F77 %29.90 in9.0 miSouth (190°)6.9 mphClear
11:15 AM60.8 °F53.6 °F77 %29.90 in10.0 miSouth (170°)3.5 mphPartly Cloudy
11:35 AM59.0 °F51.8 °F77 %29.90 in9.0 miSouth (190°)6.9 mphPartly Cloudy
11:55 AM60.8 °F53.6 °F77 %29.90 in10.0 miSouth (190°)6.9 mphClear
12:15 PM62.6 °F53.6 °F72 %29.90 in10.0 miCalmClear
12:35 PM64.4 °F51.8 °F64 %29.90 in10.0 miSSW (200°)5.8 mphPartly Cloudy
12:55 PM62.6 °F51.8 °F68 %29.90 in10.0 miCalmPartly Cloudy
1:15 PM64.4 °F51.8 °F64 %29.91 in10.0 miSSW (210°)9.2 mphClear
1:35 PM64.4 °F50.0 °F59 %29.91 in10.0 miSouth (190°)10.4 mphPartly Cloudy
1:55 PM66.2 °F50.0 °F56 %29.90 in10.0 miSouth (180°)6.9 mphPartly Cloudy
2:15 PM66.2 °F50.0 °F56 %29.90 in10.0 miSouth (180°)5.8 mphClear
2:35 PM66.2 °F50.0 °F56 %29.91 in9.0 miSouth (170°)5.8 mphClear
2:55 PM66.2 °F48.2 °F52 %29.91 in10.0 miSouth (170°)4.6 mphClear
3:15 PM68.0 °F48.2 °F49 %29.90 in10.0 miSouth (170°)5.8 mphPartly Cloudy
3:35 PM68.0 °F48.2 °F49 %29.90 in10.0 miSSW (200°)10.4 mphPartly Cloudy
3:55 PM68.0 °F48.2 °F49 %29.90 in10.0 miSouth (190°)9.2 mphClear
4:15 PM68.0 °F50.0 °F52 %29.90 in10.0 miSSW (210°)8.1 mphClear
4:35 PM68.0 °F50.0 °F52 %29.90 in10.0 miSSW (210°)6.9 mphClear
4:55 PM68.0 °F50.0 °F52 %29.91 in10.0 miWSW (240°)5.8 mphClear
5:15 PM68.0 °F50.0 °F52 %29.91 in10.0 miWest (280°)6.9 mphPartly Cloudy
5:35 PM68.0 °F50.0 °F52 %29.91 in10.0 miWSW (250°)5.8 mphScattered Clouds
5:55 PM68.0 °F50.0 °F52 %29.91 in10.0 miWSW (250°)5.8 mphMostly Cloudy
6:15 PM66.2 °F48.2 °F52 %29.91 in10.0 miWest (260°)5.8 mphScattered Clouds
6:35 PM66.2 °F48.2 °F52 %29.91 in10.0 miWSW (240°)3.5 mphPartly Cloudy
6:55 PM66.2 °F48.2 °F52 %29.91 in10.0 miWest (260°)3.5 mphClear
7:15 PM66.2 °F50.0 °F56 %29.92 in10.0 miSouth (190°)4.6 mphMostly Cloudy
7:35 PM66.2 °F50.0 °F56 %29.92 in10.0 miSouth (180°)3.5 mphMostly Cloudy
7:55 PM64.4 °F50.0 °F59 %29.93 in9.0 miSouth (190°)4.6 mphMostly Cloudy
8:15 PM64.4 °F50.0 °F59 %29.93 in10.0 miCalmMostly Cloudy
8:35 PM64.4 °F48.2 °F56 %29.93 in10.0 miSW (220°)4.6 mphScattered Clouds
8:55 PM64.4 °F48.2 °F56 %29.94 in10.0 miSSW (210°)5.8 mphMostly Cloudy
9:15 PM64.4 °F46.4 °F52 %29.94 in10.0 miSSW (200°)5.8 mphMostly Cloudy
9:35 PM62.6 °F44.6 °F52 %29.95 in10.0 miSSW (210°)5.8 mphOvercast
9:55 PM62.6 °F46.4 °F55 %29.95 in10.0 miSW (220°)8.1 mphScattered Clouds
10:15 PM62.6 °F46.4 °F55 %29.95 in10.0 miSSW (210°)4.6 mphClear
10:35 PM60.8 °F46.4 °F59 %29.93 in10.0 miSSW (210°)8.1 mphMostly Cloudy
10:55 PM59.0 °F46.4 °F63 %29.94 in10.0 miSSW (200°)5.8 mphScattered Clouds
11:15 PM59.0 °F46.4 °F63 %29.94 in10.0 miSouth (190°)5.8 mphClear
11:35 PM59.0 °F46.4 °F63 %29.95 in10.0 miSSW (200°)6.9 mphMostly Cloudy
11:55 PM59.0 °F48.2 °F67 %29.95 in10.0 miSSW (210°)6.9 mphOvercast
Hourly data recorded from CZBB, located 0.75 miles away from Vancouver, British Columbia







STORIES FROM OUR PARTNERS